Вернуться в каталог

STARLINK-35065

АктивенСвязьSSO
NORAD 65441·PAYLOAD·🇺🇸 United States

Запущен Sep 3, 2025 с Vandenberg Space Force Base

Loading…

Ближайшие Пролёты (ближайшие 24 часа)

TLE

СвежийSource: CelesTrak SupGP

Эпоха: Sep 14, 2026, 21:10 UTC

1 65441C 25194H   26257.88243056  .00206390  00000+0  64012-2 0  2570
2 65441  97.2846 107.6273 0001498  93.6555  81.4484 15.33362129    14

Отслеживайте STARLINK-35065 в реальном времени с AllMySat

Download on the App Store